Station 46001 (LLNR 984) - WESTERN GULF OF ALASKA - 175NM SE of Kodiak, AK Image indicating link to RSS feed of recent meteorological observations for station 46001


Conditions at 46001 as of
(8:10 pm HAST on 06/14/2024)
0610 GMT on 06/15/2024:
     

Click on the graph icon in the table below to see a time series plot of the last five days of that observation.

5-day plot - Wind Direction Wind Direction (WDIR): W ( 260 deg true )
5-day plot - Wind Speed Wind Speed (WSPD): 13.6 kts
5-day plot - Wind Gust Wind Gust (GST): 17.5 kts
5-day plot - Atmospheric Pressure Atmospheric Pressure (PRES):30.12 in
5-day plot - Air Temperature Air Temperature (ATMP): 46.9 °F
5-day plot - Water Temperature Water Temperature (WTMP): 46.9 °F
5-day plot - Dew Point Dew Point (DEWP): 45.3 °F
5-day plot - Wind Chill Wind Chill (CHILL): 40.6 °F
5-day plot - Wind Speed at 10 Meters Wind Speed at 10 meters (WSPD10M): 15.5 kts
5-day plot - Wind Speed at 20 Meters Wind Speed at 20 meters (WSPD20M): 15.5 kts
5-day plot -  Wind Speed, Wind Gust and Atmospheric Pressure Combined plot of Wind Speed, Gust, and Air Pressure
Supplemental Measurements
Highest 1-minute Wind Speed
Time (HAST)5-day plot - 1-Minute Wind Speed WSPD 5-day plot - 1-Minute Wind Direction WDIR
8:07 pm 15.5 kts-
Previous observations
TIME
(HAST)
5-day plot - Wind Direction
WDIR
 
5-day plot - Wind Speed
WSPD
kts
5-day plot - Wind Gust
GST
kts
5-day plot - Wave Height
WVHT
ft
5-day plot - Dominant Wave Period
DPD
sec
5-day plot - Average Wave Period
APD
sec
5-day plot - Mean Wave Direction
MWD
 
5-day plot - Atmospheric Pressure
PRES
in
5-day plot - Pressure Tendency
PTDY
in
5-day plot - Air Temperature
ATMP
°F
5-day plot - Water Temperature
WTMP
°F
5-day plot - Dew Point
DEWP
°F
5-day plot - Salinity
SAL
psu
5-day plot - Visibility
VIS
nmi
5-day plot - Tide (above MLLW)
TIDE
ft
2024-06-14 08:00 pm W 13.6 17.5----30.12-0.01 46.9 47.1 45.3---
2024-06-14 07:50 pm W 13.6 17.5 3.9 154.8 S30.11- 46.9 47.1 45.3---
2024-06-14 07:40 pm W 13.6 17.5----30.11- 46.9 47.3 45.3---
2024-06-14 07:30 pmWSW 13.6 17.5----30.11- 46.9 47.3 45.3---
2024-06-14 07:20 pm W 13.6 17.5 4.3 155.3 S30.11- 46.9 47.3 45.3---
2024-06-14 07:10 pm W 13.6 17.5 4.3-5.3 S30.11- 47.1 47.5 45.5---
2024-06-14 07:00 pm W 13.6 17.5----30.11-0.01 47.1 47.7 45.5---
2024-06-14 06:50 pm W 13.6 17.5 3.9 155.1 S30.11- 47.1 47.8 45.5---
2024-06-14 06:40 pm W 13.6 17.5 3.9-5.1 S30.11- 47.1 47.8 45.5---
2024-06-14 06:30 pm W 13.6 17.5----30.11- 47.1 47.8 45.5---
2024-06-14 06:20 pm W 13.6 15.5 4.3 155.1SSW30.11- 47.1 48.0 45.5---
2024-06-14 06:10 pm W 13.6 17.5 4.3-5.1SSW30.12- 47.1 48.0 45.5---
2024-06-14 06:00 pm W 13.6 17.5----30.12-0.02 47.1 48.0 45.5---
2024-06-14 05:50 pm W 13.6 17.5 4.3 145.6 S30.12- 46.9 47.8 45.3---
2024-06-14 05:40 pm W 13.6 17.5 4.3-5.6 S30.12- 46.9 47.8 45.3---
2024-06-14 05:30 pm W 13.6 17.5----30.12- 46.9 47.8 45.3---
2024-06-14 05:20 pmWSW 15.5 17.5 4.3 155.5 S30.12- 46.9 47.8 45.3---
2024-06-14 05:10 pmWSW 15.5 17.5 4.3-5.5 S30.12- 46.9 47.8 45.3---
2024-06-14 05:00 pmWSW 13.6 17.5----30.13-0.02 46.9 47.7 45.3---
2024-06-14 04:50 pmWSW 13.6 15.5 3.9 155.5 S30.13- 46.9 47.7 45.3---
2024-06-14 04:40 pm W 13.6 15.5 3.9-5.5 S30.13- 46.9 47.7 45.3---
2024-06-14 04:30 pm W 13.6 15.5----30.13- 46.9 47.7 45.3---
2024-06-14 04:20 pm W 13.6 17.5 3.9 155.4 S30.13- 46.9 47.7 45.3---
2024-06-14 04:10 pm W 13.6 17.5 3.9-5.4 S30.13- 46.8 47.7 45.1---
2024-06-14 04:00 pm W 13.6 17.5----30.13-0.03 46.8 47.7 45.1---
2024-06-14 03:50 pmWSW 13.6 17.5 3.9 145.4 S30.13- 46.8 47.5 45.1---
2024-06-14 03:40 pm W 13.6 17.5 3.9-5.4 S30.14- 46.8 47.5 45.1---
2024-06-14 03:30 pm W 13.6 17.5----30.14- 46.8 47.5 45.1---
2024-06-14 03:20 pm W 13.6 17.5 3.6 155.6SSE30.14- 46.8 47.5 45.1---
2024-06-14 03:10 pm W 13.6 17.5 3.6-5.6SSE30.14- 46.8 47.5 45.1---
2024-06-14 03:00 pm W 13.6 15.5----30.14+0.00 46.8 47.5 45.1---
2024-06-14 02:50 pm W 13.6 15.5 4.3 145.7 S30.14- 46.8 47.5 45.1---
2024-06-14 02:40 pm W 13.6 17.5 4.3-5.7 S30.14- 46.6 47.5 45.0---
2024-06-14 02:30 pm W 13.6 15.5----30.14- 46.8 47.7 45.1---
2024-06-14 02:20 pm W 13.6 17.5 3.9 155.5SSE30.14- 46.6 47.8 45.0---
2024-06-14 02:10 pm W 13.6 17.5 3.9-5.5SSE30.14- 46.6 47.8 45.0---
2024-06-14 02:00 pm W 13.6 17.5----30.14-0.01 46.6 48.0 45.0---
2024-06-14 01:50 pm W 13.6 17.5 4.3 155.7SSE30.14- 46.6 48.0 45.0---
2024-06-14 01:40 pm W 13.6 15.5----30.14- 46.4 48.0 44.8---
2024-06-14 01:20 pm W 13.6 15.5 3.9 155.5SSE30.15- 46.4 47.8 44.8---
2024-06-14 01:10 pmWSW 13.6 17.5 3.9-5.5SSE30.15- 46.2 47.7 44.6---
2024-06-14 01:00 pmWSW 13.6 17.5----30.15+0.00 46.2 47.5 44.6---
2024-06-14 12:50 pm W 13.6 17.5 3.9 145.3 SE30.15- 46.0 47.5 44.4---
2024-06-14 12:40 pm W 13.6 17.5 3.9-5.3 SE30.15- 45.9 47.5 44.2---
2024-06-14 12:30 pm W 13.6 17.5----30.15- 45.7 46.8 44.1---
2024-06-14 12:20 pm W 13.6 17.5 3.9 155.1SSW30.15- 45.5 46.6 43.9---
2024-06-14 12:10 pmWSW 13.6 17.5 3.9-5.1SSW30.14- 45.3 46.4 43.7---
2024-06-14 12:00 pm W 13.6 15.5----30.15-0.01 45.1 46.4 43.5---
2024-06-14 11:50 am W 13.6 15.5 3.6 155.0SSW30.15- 45.0 46.4 43.3---
2024-06-14 11:40 am W 13.6 17.5 3.6-5.0SSW30.15- 44.8 46.4 43.2---
2024-06-14 11:30 amWSW 13.6 17.5----30.15- 44.6 46.4 43.0---
2024-06-14 11:20 am W 13.6 17.5 3.9 155.2 S30.15- 44.4 46.2 42.8---
2024-06-14 11:10 am W 13.6 17.5 3.9-5.2 S30.15- 44.4 46.2 42.8---
2024-06-14 11:00 am W 13.6 17.5----30.15-0.01 44.2 46.2 42.8---
2024-06-14 10:50 am W 13.6 17.5 3.6 154.8 S30.15- 44.2 46.2 42.8---
2024-06-14 10:40 am W 13.6 17.5 3.6-4.8 S30.15- 44.2 46.0 42.8---
2024-06-14 10:30 am W 13.6 17.5----30.15- 44.2 46.2 42.8---
2024-06-14 10:20 am W 15.5 17.5 3.3 154.6SSW30.15- 44.2 46.2 42.6---
2024-06-14 10:10 am W 15.5 19.4 3.3-4.6SSW30.15- 44.2 46.2 42.6---
2024-06-14 10:00 am W 15.5 19.4----30.16-0.02 44.4 46.2 42.8---
2024-06-14 09:50 am W 15.5 19.4 3.0 154.6 S30.15- 44.8 46.2 43.0---
2024-06-14 09:40 am W 15.5 19.4 3.0-4.6 S30.15- 45.7 46.2 43.3---
2024-06-14 09:30 am W 15.5 19.4----30.16- 45.9 46.2 43.0---
2024-06-14 09:20 am W 15.5 17.5 3.0 165.2 S30.16- 46.0 46.2 43.2---
2024-06-14 09:10 am W 15.5 19.4 3.0-5.2 S30.16- 46.0 46.4 43.2---
2024-06-14 09:00 am W 13.6 17.5----30.16-0.02 46.0 46.4 43.2---
2024-06-14 08:50 amWSW 13.6 17.5 3.0 155.2SSW30.17- 46.0 46.2 43.2---
2024-06-14 08:40 am W 11.7 13.6 3.0-5.2SSW30.17- 46.2 46.2 43.5---
2024-06-14 08:30 am W 11.7 13.6----30.17- 46.0 46.2 43.3---
2024-06-14 08:20 am W 11.7 13.6 3.3 155.9SSW30.17- 45.9- 43.2---
2024-06-14 08:10 am W 11.7 13.6 3.3-5.9SSW30.17- 45.9 46.4 43.2---
2024-06-14 08:00 am W 11.7 13.6----30.17-0.02 45.7 46.4 43.0---
2024-06-14 07:50 am W 11.7 11.7 3.0 155.6SSW30.17- 45.7 46.4 43.0---
2024-06-14 07:40 am W 9.7 11.7----30.17- 45.5 46.2 42.6---
2024-06-14 07:30 am W 11.7 13.6----30.17- 45.5 46.2 42.4---
2024-06-14 07:20 am W 11.7 13.6 3.3 156.1SSE30.17- 45.5 46.2 42.4---
2024-06-14 07:10 am W 11.7 13.6 3.3-6.1SSE30.17- 45.5 46.0 42.6---
2024-06-14 07:00 am W 11.7 13.6----30.18-0.01 45.5 46.2 42.6---
2024-06-14 06:50 am W 11.7 13.6 3.0 156.0SSE30.18- 45.5 46.2 42.6---
2024-06-14 06:40 am W 9.7 13.6 3.0-6.0SSE30.18- 45.5 46.2 42.6---
2024-06-14 06:30 am W 11.7 13.6----30.18- 45.5 46.2 42.3---
2024-06-14 06:20 amWNW 9.7 13.6 3.0 155.8SSE30.18- 45.3 46.2 42.3---
2024-06-14 06:10 amWNW 11.7 17.5----30.18- 45.1 46.2 42.1---
2024-06-14 06:00 amWNW 11.7 13.6----30.18+0.00 45.3 46.4 42.1---
2024-06-14 05:50 amWNW 11.7 13.6 3.3 156.9 S30.18- 45.1 46.6 41.9---
2024-06-14 05:40 amWNW 11.7 15.5 3.3-6.9 S30.18- 45.1 46.6 42.4---
2024-06-14 05:30 amWNW 11.7 13.6----30.18- 45.3 46.6 42.8---
2024-06-14 05:20 am W 11.7 15.5 3.0 157.1 S30.18- 45.3 46.6 42.8---
2024-06-14 05:10 am W 9.7 11.7 3.0-7.1 S30.19- 45.1 46.6 42.6---
2024-06-14 05:00 am W 9.7 11.7----30.19-0.01 45.0 46.4 42.3---
2024-06-14 04:50 am W 9.7 11.7 3.0 146.6SSE30.19- 45.0 46.4 42.3---
2024-06-14 04:40 am W 9.7 13.6----30.19- 45.3 46.4 42.8---
2024-06-14 04:30 amWNW 11.7 15.5----30.19- 45.5 46.4 42.6---
2024-06-14 04:20 amWNW 11.7 15.5 3.3 157.8 S30.19- 45.7 46.2 42.8---
2024-06-14 04:10 amWNW 9.7 13.6 3.3-7.8 S30.19- 45.9 46.4 43.2---
2024-06-14 04:00 am NW 9.7 13.6----30.19+0.00 46.0 46.6 43.3---
2024-06-14 03:50 am NW 9.7 11.7 3.3 157.7SSE30.19- 46.0 46.6 43.3---
2024-06-14 03:40 am NW 9.7 11.7 3.3-7.7SSE30.19- 46.0 46.8 43.3---
2024-06-14 03:30 am NW 9.7 11.7----30.19- 46.0 46.8 43.3---
2024-06-14 03:20 am NW 9.7 11.7 3.3 167.3 S30.19- 46.0 46.8 43.5---
2024-06-14 03:10 am NW 9.7 11.7 3.3-7.3 S30.19- 45.9 46.9 43.3---
2024-06-14 03:00 am NW 9.7 13.6----30.19+0.00 46.0 46.9 43.7---
2024-06-14 02:50 am NW 9.7 11.7 3.0 157.3SSE30.19- 46.0 46.9 44.1---
2024-06-14 02:40 am NW 9.7 11.7 3.0-7.3SSE30.19- 46.2 46.9 44.4---
2024-06-14 02:30 am NW 7.8 9.7----30.19- 46.0 47.1 44.4---
2024-06-14 02:20 am NW 7.8 11.7 3.3 157.9SSE30.19- 46.0 46.9 44.8---
2024-06-14 02:10 am NW 7.8 9.7 3.3-7.9SSE30.19- 45.9 46.9 44.6---
2024-06-14 02:00 am NW 7.8 11.7----30.19+0.00 45.9 46.9 45.0---
2024-06-14 01:50 am NW 7.8 9.7 3.3 167.3SSE30.19- 46.0 46.9 45.1---
2024-06-14 01:40 am NW 5.8 9.7 3.3-7.3SSE30.19- 46.4 46.8 45.5---
2024-06-14 01:30 am NW 5.8 7.8----30.19- 46.6 46.6 45.5---
2024-06-14 01:20 am NW 7.8 9.7 3.0 166.5 S30.19- 46.8 46.4 45.3---
2024-06-14 01:10 am NW 7.8 9.7 3.0-6.5 S30.19- 47.1 46.2 44.6---
2024-06-14 01:00 am NW 3.9 7.8----30.19+0.00 47.1 46.2 43.5---
2024-06-14 12:50 amWNW 3.9 3.9 3.6 166.7 S30.19- 47.1 46.2 43.5---
2024-06-14 12:40 amWNW 3.9 3.9 3.6-6.7 S30.19- 47.5 46.2 43.5---
2024-06-14 12:30 am NW 3.9 5.8----30.19- 47.7 46.2 42.6---
2024-06-14 12:20 amNNW 3.9 5.8 3.3 166.4SSE30.19- 47.5 46.2 42.4---
2024-06-14 12:10 am NW 3.9 3.9 3.3-6.4SSE30.19- 47.5 46.4 43.2---
2024-06-14 12:00 am N 3.9 5.8----30.19+0.00 47.7 46.4 42.8---
2024-06-13 11:50 pm N 3.9 3.9 3.3 166.2 S30.19- 48.0 46.4 42.3---
2024-06-13 11:40 pm N 3.9 5.8 3.3-6.2 S30.19- 48.4 46.6 41.4---
2024-06-13 11:30 pm N 3.9 7.8----30.19- 48.0 46.4 41.4---
2024-06-13 11:20 pm N 3.9 5.8 3.0 155.7SSE30.19- 48.0 46.4 41.5---
2024-06-13 11:10 pmNNW 5.8 7.8 3.0-5.7SSE30.19- 48.2 46.4 41.4---
2024-06-13 11:00 pm N 5.8 7.8----30.19+0.00 48.2 46.4 41.9---
2024-06-13 10:50 pm N 3.9 5.8 3.6 165.9 S30.19- 48.2 46.4 41.4---
2024-06-13 10:40 pm NE 3.9 7.8 3.6-5.9 S30.19- 48.2 46.4 41.0---
2024-06-13 10:30 pmNNE 3.9 7.8----30.19- 48.0 46.4 42.1---
2024-06-13 10:20 pm N 3.9 5.8 3.3 155.9 S30.19- 48.2 46.4 42.1---
2024-06-13 10:10 pmNNE 3.9 5.8 3.3-5.9 S30.19- 48.4 46.4 41.2---
2024-06-13 10:00 pmNNE 5.8 7.8----30.19+0.00 48.0 46.4 41.5---
2024-06-13 09:50 pmNNE 3.9 5.8 3.0 145.8SSE30.19- 48.2 46.4 41.9---
2024-06-13 09:40 pmNNE 5.8 7.8----30.19- 47.8 46.4 41.9---
2024-06-13 09:30 pmNNE 5.8 7.8----30.19- 48.0 46.4 42.3---
2024-06-13 09:20 pmNNE 5.8 7.8 3.3 166.1 S30.19- 47.8 46.4 42.1---
2024-06-13 09:10 pm N 5.8 7.8 3.3-6.1 S30.19- 47.8 46.4 42.1---
2024-06-13 09:00 pm N 5.8 5.8----30.19+0.01 47.7 46.4 42.4---
2024-06-13 08:50 pmNNE 5.8 7.8 3.3 155.9SSE30.19- 47.7 46.4 42.3---
2024-06-13 08:40 pmNNE 5.8 7.8----30.19- 47.7 46.4 42.3---
2024-06-13 08:30 pmNNE 5.8 9.7----30.19- 47.3 46.4 43.0---
2024-06-13 08:20 pmNNE 5.8 7.8 3.6 166.0 S30.19- 47.1 46.2 44.6---
2024-06-13 08:10 pmNNE 5.8 7.8 3.6-6.0 S30.19- 47.3 46.2 45.1---
2024-06-13 08:00 pm N 5.8 7.8----30.18+0.01 47.1 46.4 44.2---
2024-06-13 07:50 pm N 7.8 9.7 3.3 166.2 S30.18- 47.1 46.4 45.3---

Detailed Wave Summary
for 46001 as of
(7:40 pm HAST on 06/14/2024)
0540 GMT on 06/15/2024:

These wave data are displayed in rounded times.

     

Click on the graph icon in the table below to see a time series plot of the last five days of that observation.

5-day plot - Significant Wave Height Significant Wave Height (WVHT): 3.9 ft
5-day plot - Swell Height Swell Height (SwH): 2.3 ft
5-day plot - Swell Period Swell Period (SwP): 14.8 sec
5-day plot - Swell Direction Swell Direction (SwD): S
5-day plot - Wind Wave Height Wind Wave Height (WWH): 3.0 ft
5-day plot - Wind Wave Period Wind Wave Period (WWP): 4.8 sec
5-day plot - Wind Wave Direction Wind Wave Direction (WWD):WSW
5-day plot - Wave Steepness Wave Steepness (STEEPNESS): AVERAGE
5-day plot - Average Wave Period Average Wave Period (APD): 4.8 sec
Previous observations
TIME
(HAST)
5-day plot - Wave Height
WVHT
ft
5-day plot - Swell Height
SwH
ft
5-day plot - Swell Period
SwP
sec
5-day plot - Swell Direction
SwD
 
5-day plot - Wind Wave Height
WWH
ft
5-day plot - Wind Wave Period
WWP
sec
5-day plot - Wind Wave Direction
WWD
 
5-day plot - Wave Steepness
STEEPNESS
 
5-day plot - Average Wave Period
APD
sec
2024-06-14 07:10 pm 4.3 2.6 14.8 S 3.3 5.0 WSW AVERAGE 5.3
2024-06-14 06:40 pm 3.9 2.3 14.8 S 3.3 4.8 WSW AVERAGE 5.1
2024-06-14 06:10 pm 4.3 2.6 14.8SSW 3.3 5.0 WSW AVERAGE 5.1
2024-06-14 05:40 pm 4.3 3.0 13.8 S 3.3 5.3 WSW AVERAGE 5.6
2024-06-14 05:10 pm 4.3 2.6 14.8 S 3.3 5.0 WSW AVERAGE 5.5
2024-06-14 04:40 pm 3.9 2.6 14.8 S 3.0 5.3 WSW AVERAGE 5.5
2024-06-14 04:10 pm 3.9 2.3 14.8 S 3.0 5.0 WSW AVERAGE 5.4
2024-06-14 03:40 pm 3.9 2.6 13.8 S 3.0 5.6 WSW AVERAGE 5.4
2024-06-14 03:10 pm 3.6 2.6 14.8SSE 2.6 5.0 W SWELL 5.6
2024-06-14 02:40 pm 4.3 3.0 13.8 S 3.3 5.0 WSW AVERAGE 5.7
2024-06-14 02:10 pm 3.9 2.6 14.8SSE 3.0 5.0 WSW AVERAGE 5.5
2024-06-14 01:40 pm 4.3 3.0 14.8SSE 3.0 4.8 W SWELL 5.7
2024-06-14 01:10 pm 3.9 2.6 14.8SSE 3.0 4.8 W AVERAGE 5.5
2024-06-14 12:40 pm 3.9 2.6 13.8 SE 3.0 4.8 W AVERAGE 5.3
2024-06-14 12:10 pm 3.9 2.6 14.8SSW 3.0 4.5 W AVERAGE 5.1
2024-06-14 11:40 am 3.6 2.6 14.8SSW 2.6 4.2 WSW SWELL 5.0
2024-06-14 11:10 am 3.9 3.0 14.8 S 2.6 3.7 W SWELL 5.2
2024-06-14 10:40 am 3.6 2.6 14.8 S 2.6 3.7 W SWELL 4.8
2024-06-14 10:10 am 3.3 2.3 14.8SSW 2.3 3.4 W SWELL 4.6
2024-06-14 09:40 am 3.0 2.3 14.8 S 2.0 3.6 WNW SWELL 4.6
2024-06-14 09:10 am 3.0 2.3 16.0 S 2.0 3.7 NW SWELL 5.2
2024-06-14 08:40 am 3.0 2.3 14.8SSW 1.6 3.7 NNW SWELL 5.2
2024-06-14 08:10 am 3.3 2.6 14.8SSW 1.6 3.7 NNW SWELL 5.9
2024-06-14 07:40 am 3.0 2.6 14.8SSW 1.6 3.6 NNW SWELL 5.6
2024-06-14 07:10 am 3.3 2.6 14.8SSE 1.6 3.6 NNW SWELL 6.1
2024-06-14 06:40 am 3.0 2.6 14.8SSE 1.3 3.2 NW SWELL 6.0
2024-06-14 06:10 am 3.0 2.3 14.8SSE 1.3 3.1 WNW SWELL 5.8
2024-06-14 05:40 am 3.3 3.0 14.8 S 1.3 5.3 E SWELL 6.9
2024-06-14 05:10 am 3.0 2.6 14.8 S 1.0 3.3 NW SWELL 7.1
2024-06-14 04:40 am 3.0 2.6 13.8SSE 1.3 5.0 E SWELL 6.6
2024-06-14 04:10 am 3.3 3.3 14.8 S 1.0 5.0 E SWELL 7.8
2024-06-14 03:40 am 3.3 3.3 14.8SSE 1.0 3.3 NNW SWELL 7.7
2024-06-14 03:10 am 3.3 3.0 16.0 S 1.0 4.3 NE SWELL 7.3
2024-06-14 02:40 am 3.0 3.0 14.8SSE 1.0 4.3 NE SWELL 7.3
2024-06-14 02:10 am 3.3 3.3 14.8SSE 1.0 3.8 N SWELL 7.9
2024-06-14 01:40 am 3.3 3.3 16.0SSE 0.7 3.7 E SWELL 7.3
2024-06-14 01:10 am 3.0 3.0 16.0 S 1.0 3.6 NE SWELL 6.5
2024-06-14 12:40 am 3.6 3.3 16.0 S 1.0 4.0 ENE SWELL 6.7
2024-06-14 12:10 am 3.3 3.3 16.0SSE 1.0 3.4 NNE SWELL 6.4
2024-06-13 11:40 pm 3.3 3.3 16.0 S 1.3 3.4 ENE SWELL 6.2
2024-06-13 11:10 pm 3.0 3.0 14.8SSE 1.3 3.7 NNE SWELL 5.7
2024-06-13 10:40 pm 3.6 3.3 16.0 S 1.3 4.0 NE SWELL 5.9
2024-06-13 10:10 pm 3.3 3.0 14.8 S 1.3 3.8 NE SWELL 5.9
2024-06-13 09:40 pm 3.0 2.6 13.8SSE 1.3 3.7 NNE SWELL 5.8
2024-06-13 09:10 pm 3.3 3.0 16.0 S 1.3 3.8 NNE SWELL 6.1
2024-06-13 08:40 pm 3.3 3.0 14.8SSE 1.3 4.0 NE SWELL 5.9
2024-06-13 08:10 pm 3.6 3.3 16.0 S 1.3 3.3 NE SWELL 6.0

Plot of wave energy versus frequency (and period)